When you browse on this site, cookies collect data to enhance your experience and personalize the content and advertising you see.
Visit our Privacy Policy to learn more. By continuing to use the site, you agree to this use of cookies and data.
  • In Sweden
  • List of Countries
  • For 7 days
  • Water Temperature
  • Weather Map
  • Weather Widgets
  • user-avatar
    Login

    Hourly Weather Clinton

    Today, 10 December, Tuesday

    Time Temperature Precipitation Wind Pressure Humidity
    00:00 +13°C° 0 mm 6 mps 750 mmHg 85%
    01:00 +12°C° 0 mm 4 mps 750 mmHg 83%
    02:00 +12°C° 0 mm 4 mps 750 mmHg 82%
    03:00 +12°C° 0 mm 5 mps 750 mmHg 82%
    04:00 +12°C° 0 mm 5 mps 750 mmHg 81%
    05:00 +13°C° 0 mm 5 mps 750 mmHg 82%
    06:00 +13°C° 0 mm 5 mps 751 mmHg 84%
    07:00 +12°C° 0 mm 3 mps 751 mmHg 90%
    08:00 +13°C° 0.1 mm 4 mps 751 mmHg 87%
    09:00 +13°C° 0.1 mm 5 mps 750 mmHg 85%
    10:00 +14°C° 0.1 mm 6 mps 750 mmHg 82%
    11:00 +13°C° 1.2 mm 5 mps 751 mmHg 86%
    12:00 +13°C° 1.2 mm 5 mps 751 mmHg 89%
    13:00 +13°C° 1.2 mm 4 mps 752 mmHg 93%
    14:00 +13°C° 0.1 mm 3 mps 752 mmHg 93%
    15:00 +12°C° 0.1 mm 3 mps 752 mmHg 93%
    16:00 +13°C° 0.1 mm 2 mps 753 mmHg 93%
    17:00 +11°C° 0.5 mm 3 mps 754 mmHg 88%
    18:00 +10°C° 0.5 mm 4 mps 755 mmHg 82%
    19:00 +7°C° 0.5 mm 5 mps 756 mmHg 77%
    20:00 +6°C° 0.9 mm 5 mps 757 mmHg 78%
    21:00 +3°C° 0.9 mm 6 mps 758 mmHg 78%
    22:00 +1°C° 0.9 mm 6 mps 759 mmHg 79%
    23:00 0°C° 0.3 mm 5 mps 759 mmHg 79%

    Tomorrow, 11 December, Wednesday

    Time Temperature Precipitation Wind Pressure Humidity
    00:00 0°C° 0.3 mm 5 mps 759 mmHg 79%
    01:00 -1°C° 0.3 mm 5 mps 760 mmHg 78%
    02:00 -1°C° 0.4 mm 5 mps 760 mmHg 81%
    03:00 -1°C° 0.4 mm 5 mps 761 mmHg 83%
    04:00 -2°C° 0.4 mm 4 mps 761 mmHg 85%
    05:00 -2°C° 0.3 mm 4 mps 761 mmHg 85%
    06:00 -2°C° 0.3 mm 4 mps 762 mmHg 85%
    07:00 -3°C° 0.3 mm 4 mps 762 mmHg 86%
    08:00 -2°C° 0.1 mm 4 mps 763 mmHg 79%
    09:00 -1°C° 0.1 mm 4 mps 763 mmHg 71%
    10:00 0°C° 0.1 mm 4 mps 764 mmHg 64%
    11:00 0°C° 0 mm 4 mps 764 mmHg 61%
    12:00 0°C° 0 mm 4 mps 763 mmHg 58%
    13:00 +1°C° 0 mm 4 mps 763 mmHg 54%
    14:00 +2°C° 0 mm 3 mps 763 mmHg 57%
    15:00 +2°C° 0 mm 3 mps 764 mmHg 60%
    16:00 +3°C° 0 mm 2 mps 764 mmHg 63%
    17:00 +2°C° 0 mm 2 mps 765 mmHg 63%
    18:00 +1°C° 0 mm 3 mps 765 mmHg 64%
    19:00 0°C° 0 mm 3 mps 766 mmHg 64%
    20:00 +1°C° 0 mm 2 mps 767 mmHg 64%
    21:00 -1°C° 0 mm 2 mps 767 mmHg 64%
    22:00 -1°C° 0 mm 2 mps 768 mmHg 64%
    23:00 -1°C° 0 mm 2 mps 768 mmHg 65%

    Day after tomorrow, 12 December, Thursday

    Time Temperature Precipitation Wind Pressure Humidity
    00:00 -2°C° 0 mm 2 mps 769 mmHg 66%
    01:00 -2°C° 0 mm 2 mps 770 mmHg 67%
    02:00 -2°C° 0 mm 2 mps 770 mmHg 66%
    03:00 -3°C° 0 mm 2 mps 770 mmHg 64%
    04:00 -3°C° 0 mm 2 mps 770 mmHg 62%
    05:00 -4°C° 0 mm 2 mps 771 mmHg 61%
    06:00 -4°C° 0 mm 2 mps 772 mmHg 60%
    07:00 -4°C° 0 mm 2 mps 772 mmHg 59%
    08:00 -3°C° 0 mm 2 mps 773 mmHg 55%
    09:00 -2°C° 0 mm 2 mps 773 mmHg 50%
    10:00 -1°C° 0 mm 2 mps 773 mmHg 45%
    11:00 +1°C° 0 mm 2 mps 773 mmHg 44%
    12:00 +2°C° 0 mm 2 mps 772 mmHg 42%
    13:00 +3°C° 0 mm 2 mps 772 mmHg 40%
    14:00 +2°C° 0 mm 2 mps 772 mmHg 44%
    15:00 +2°C° 0 mm 2 mps 771 mmHg 48%
    16:00 +1°C° 0 mm 2 mps 771 mmHg 52%
    17:00 -1°C° 0 mm 2 mps 771 mmHg 58%
    18:00 +1°C° 0 mm 1 mps 771 mmHg 63%
    19:00 0°C° 0 mm 1 mps 771 mmHg 69%
    20:00 0°C° 0 mm 1 mps 770 mmHg 70%
    21:00 0°C° 0 mm 1 mps 770 mmHg 72%
    22:00 0°C° 0 mm 1 mps 770 mmHg 74%
    23:00 0°C° 0 mm 1 mps 769 mmHg 75%

    13 December, Friday

    Time Temperature Precipitation Wind Pressure Humidity
    00:00 -1°C° 0 mm 0 mps 769 mmHg 76%
    01:00 -1°C° 0 mm 0 mps 768 mmHg 77%
    02:00 0°C° 0 mm 0 mps 767 mmHg 78%
    03:00 0°C° 0 mm 0 mps 767 mmHg 78%
    04:00 0°C° 0 mm 0 mps 766 mmHg 79%
    05:00 +1°C° 0 mm 0 mps 766 mmHg 78%
    06:00 +2°C° 0 mm 1 mps 765 mmHg 78%
    07:00 +3°C° 0 mm 1 mps 765 mmHg 78%
    08:00 +3°C° 0.1 mm 1 mps 764 mmHg 80%
    09:00 +3°C° 0.1 mm 1 mps 764 mmHg 83%
    10:00 +4°C° 0.1 mm 1 mps 764 mmHg 85%
    11:00 +4°C° 0.1 mm 1 mps 763 mmHg 86%
    12:00 +5°C° 0.1 mm 1 mps 762 mmHg 87%
    13:00 +5°C° 0.1 mm 1 mps 761 mmHg 88%
    14:00 +5°C° 0 mm 1 mps 760 mmHg 89%
    15:00 +6°C° 0 mm 1 mps 759 mmHg 90%
    16:00 +6°C° 0 mm 1 mps 759 mmHg 91%
    17:00 +6°C° 0.3 mm 1 mps 758 mmHg 93%
    18:00 +6°C° 0.3 mm 1 mps 757 mmHg 95%
    19:00 +6°C° 0.3 mm 1 mps 757 mmHg 98%
    20:00 +6°C° 2.3 mm 2 mps 756 mmHg 98%
    21:00 +7°C° 2.3 mm 2 mps 755 mmHg 98%
    22:00 +8°C° 2.3 mm 3 mps 754 mmHg 99%
    23:00 +8°C° 3.4 mm 2 mps 753 mmHg 99%

    14 December, Saturday

    Time Temperature Precipitation Wind Pressure Humidity
    00:00 +8°C° 3.4 mm 2 mps 751 mmHg 99%
    01:00 +8°C° 3.4 mm 2 mps 750 mmHg 99%
    02:00 +8°C° 2.2 mm 2 mps 749 mmHg 99%
    03:00 +8°C° 2.2 mm 2 mps 748 mmHg 99%
    04:00 +8°C° 2.2 mm 2 mps 746 mmHg 99%
    05:00 +8°C° 0 mm 2 mps 746 mmHg 98%
    06:00 +7°C° 0 mm 2 mps 745 mmHg 98%
    07:00 +7°C° 0 mm 2 mps 744 mmHg 98%
    08:00 +8°C° 0 mm 3 mps 744 mmHg 96%
    09:00 +8°C° 0 mm 3 mps 744 mmHg 93%
    10:00 +9°C° 0 mm 3 mps 744 mmHg 91%
    11:00 +9°C° 0.4 mm 3 mps 744 mmHg 92%
    12:00 +9°C° 0.4 mm 3 mps 743 mmHg 93%
    13:00 +9°C° 0.4 mm 3 mps 742 mmHg 94%
    14:00 +9°C° 0.8 mm 3 mps 743 mmHg 93%
    15:00 +9°C° 0.8 mm 3 mps 743 mmHg 92%
    16:00 +9°C° 0.8 mm 3 mps 744 mmHg 91%
    17:00 +8°C° 0 mm 3 mps 744 mmHg 91%
    18:00 +8°C° 0 mm 3 mps 745 mmHg 90%
    19:00 +8°C° 0 mm 3 mps 746 mmHg 89%
    20:00 +7°C° 0 mm 3 mps 746 mmHg 87%
    21:00 +7°C° 0 mm 3 mps 747 mmHg 86%
    22:00 +6°C° 0 mm 2 mps 748 mmHg 85%
    23:00 +5°C° 0 mm 3 mps 748 mmHg 85%

    15 December, Sunday

    Time Temperature Precipitation Wind Pressure Humidity
    00:00 +5°C° 0 mm 3 mps 748 mmHg 85%
    01:00 +5°C° 0 mm 4 mps 748 mmHg 86%
    02:00 +5°C° 0 mm 4 mps 749 mmHg 85%
    03:00 +5°C° 0 mm 4 mps 749 mmHg 84%
    04:00 +5°C° 0 mm 4 mps 749 mmHg 83%
    05:00 +4°C° 0 mm 4 mps 750 mmHg 83%
    06:00 +4°C° 0 mm 3 mps 751 mmHg 83%
    07:00 +4°C° 0 mm 3 mps 751 mmHg 83%
    08:00 +5°C° 0 mm 4 mps 752 mmHg 76%
    09:00 +6°C° 0 mm 4 mps 753 mmHg 69%
    10:00 +7°C° 0 mm 4 mps 753 mmHg 63%
    11:00 +7°C° 0 mm 5 mps 753 mmHg 58%
    12:00 +8°C° 0 mm 5 mps 754 mmHg 54%
    13:00 +9°C° 0 mm 5 mps 754 mmHg 49%
    14:00 +8°C° 0 mm 4 mps 754 mmHg 51%
    15:00 +8°C° 0 mm 4 mps 755 mmHg 52%
    16:00 +8°C° 0 mm 3 mps 755 mmHg 54%
    17:00 +7°C° 0 mm 3 mps 756 mmHg 56%
    18:00 +5°C° 0 mm 3 mps 757 mmHg 57%
    19:00 +5°C° 0 mm 2 mps 758 mmHg 59%
    20:00 +3°C° 0 mm 3 mps 758 mmHg 58%
    21:00 +3°C° 0 mm 3 mps 759 mmHg 57%
    22:00 +2°C° 0 mm 3 mps 759 mmHg 56%
    23:00 +2°C° 0 mm 3 mps 760 mmHg 56%
    Show more